| time (UTC) | temp C | wind direction | speed KPH | gust KPH | rain 1hr cm | rain 24hr cm | rain mn cm | humidity % | barometer mb |
| 20260505125041 | 11 | 127 | 8.0 | 11.3 | 0.00 | 0.00 | 0.00 | 60 | 1010.8 |
| 20260505124026 | 11 | 110 | 8.0 | 9.7 | 0.00 | 0.00 | 0.00 | 62 | 1010.8 |
| 20260505123024 | 11 | 113 | 8.0 | 12.9 | 0.00 | 0.00 | 0.00 | 68 | 1010.8 |
| 20260505122017 | 11 | 157 | 4.8 | 8.0 | 0.00 | 0.00 | 0.00 | 70 | 1010.7 |
| 20260505121042 | 11 | 164 | 6.4 | 8.0 | 0.00 | 0.00 | 0.00 | 71 | 1010.7 |
| 20260505120020 | 11 | 166 | 3.2 | 6.4 | 0.00 | 0.00 | 0.00 | 72 | 1010.8 |
| 20260505115019 | 11 | 162 | 3.2 | 6.4 | 0.00 | 0.00 | 0.00 | 69 | 1010.8 |
| 20260505114018 | 11 | 234 | 3.2 | 4.8 | 0.00 | 0.00 | 0.00 | 72 | 1010.7 |
| 20260505113016 | 11 | 248 | 0.0 | 3.2 | 0.00 | 0.00 | 0.00 | 72 | 1010.7 |
| 20260505112017 | 11 | 225 | 0.0 | 1.6 | 0.00 | 0.00 | 0.00 | 71 | 1010.6 |
| 20260505111054 | 11 | 87 | 1.6 | 6.4 | 0.00 | 0.00 | 0.00 | 73 | 1010.8 |
| 20260505102020 | 12 | 110 | 4.8 | 8.0 | 0.00 | 0.00 | 0.00 | 74 | 1010.8 |
| 20260505101024 | 12 | 106 | 3.2 | 4.8 | 0.00 | 0.00 | 0.00 | 70 | 1010.7 |
| 20260505100029 | 12 | 132 | 4.8 | 9.7 | 0.00 | 0.00 | 0.00 | 67 | 1010.8 |
| 20260505095017 | 12 | 132 | 4.8 | 6.4 | 0.00 | 0.00 | 0.00 | 68 | 1010.7 |
| 20260505094020 | 12 | 106 | 3.2 | 4.8 | 0.00 | 0.00 | 0.00 | 67 | 1010.7 |
| 20260505093025 | 12 | 151 | 3.2 | 4.8 | 0.00 | 0.00 | 0.00 | 67 | 1010.7 |
| 20260505092110 | 12 | 159 | 4.8 | 6.4 | 0.00 | 0.00 | 0.00 | 68 | 1010.8 |
| 20260505091036 | 12 | 172 | 3.2 | 4.8 | 0.00 | 0.00 | 0.00 | 69 | 1010.8 |
| 20260505090021 | 12 | 182 | 3.2 | 6.4 | 0.00 | 0.00 | 0.00 | 69 | 1010.8 |
| 20260505085025 | 12 | 195 | 3.2 | 6.4 | 0.00 | 0.00 | 0.00 | 68 | 1010.9 |
| 20260505084030 | 13 | 217 | 4.8 | 8.0 | 0.00 | 0.00 | 0.00 | 66 | 1010.9 |
| 20260505083017 | 13 | 157 | 4.8 | 6.4 | 0.00 | 0.00 | 0.00 | 59 | 1010.9 |
| 20260505082022 | 12 | 143 | 4.8 | 6.4 | 0.00 | 0.00 | 0.00 | 64 | 1010.8 |
| 20260505081027 | 12 | 145 | 3.2 | 4.8 | 0.00 | 0.00 | 0.00 | 67 | 1010.9 |
| 20260505080033 | 12 | 120 | 1.6 | 4.8 | 0.00 | 0.00 | 0.00 | 68 | 1011.0 |
| 20260505075018 | 12 | 151 | 6.4 | 8.0 | 0.00 | 0.00 | 0.00 | 67 | 1011.1 |
| 20260505074023 | 12 | 139 | 3.2 | 6.4 | 0.00 | 0.00 | 0.00 | 69 | 1011.2 |
| 20260505073028 | 12 | 126 | 4.8 | 4.8 | 0.00 | 0.00 | 0.00 | 68 | 1011.4 |
| 20260505072114 | 12 | 123 | 4.8 | 6.4 | 0.00 | 0.00 | 0.00 | 67 | 1011.5 |
| 20260505071019 | 12 | 114 | 8.0 | 9.7 | 0.00 | 0.00 | 0.00 | 67 | 1011.6 |
| 20260505070024 | 12 | 94 | 8.0 | 11.3 | 0.00 | 0.00 | 0.00 | 67 | 1011.6 |
| 20260505065028 | 12 | 111 | 8.0 | 9.7 | 0.00 | 0.00 | 0.00 | 65 | 1011.7 |
| 20260505064036 | 12 | 103 | 8.0 | 11.3 | 0.00 | 0.00 | 0.00 | 67 | 1011.8 |
| 20260505063020 | 13 | 112 | 8.0 | 9.7 | 0.00 | 0.00 | 0.00 | 64 | 1011.9 |
| 20260505062024 | 13 | 121 | 6.4 | 9.7 | 0.00 | 0.00 | 0.00 | 60 | 1011.9 |
| 20260505061028 | 14 | 85 | 4.8 | 6.4 | 0.00 | 0.00 | 0.00 | 55 | 1011.9 |
| 20260505060015 | 14 | 174 | 1.6 | 4.8 | 0.00 | 0.00 | 0.00 | 55 | 1011.7 |
| 20260505055020 | 14 | 206 | 1.6 | 4.8 | 0.00 | 0.00 | 0.00 | 56 | 1011.6 |
| 20260505054025 | 14 | 128 | 8.0 | 11.3 | 0.00 | 0.00 | 0.00 | 58 | 1011.6 |
| 20260505053030 | 14 | 150 | 6.4 | 9.7 | 0.00 | 0.00 | 0.00 | 58 | 1011.6 |
| 20260505052037 | 14 | 156 | 11.3 | 16.1 | 0.00 | 0.00 | 0.00 | 57 | 1011.5 |
| 20260505051021 | 14 | 161 | 12.9 | 16.1 | 0.00 | 0.00 | 0.00 | 59 | 1011.4 |
| 20260505041019 | 15 | 172 | 8.0 | 11.3 | 0.00 | 0.00 | 0.00 | 59 | 1010.4 |
| 20260505040018 | 15 | 150 | 11.3 | 16.1 | 0.00 | 0.00 | 0.00 | 61 | 1010.1 |
| 20260505035018 | 15 | 167 | 12.9 | 17.7 | 0.00 | 0.00 | 0.00 | 60 | 1010.0 |
| 20260505034015 | 16 | 158 | 11.3 | 17.7 | 0.00 | 0.00 | 0.00 | 58 | 1009.9 |
| 20260505033033 | 16 | 155 | 3.2 | 8.0 | 0.00 | 0.00 | 0.00 | 57 | 1009.9 |
| 20260505032019 | 16 | 169 | 6.4 | 9.7 | 0.00 | 0.00 | 0.00 | 56 | 1009.6 |
| 20260505031023 | 16 | 167 | 8.0 | 12.9 | 0.00 | 0.00 | 0.00 | 57 | 1009.3 |
| 20260505030027 | 16 | 173 | 8.0 | 12.9 | 0.00 | 0.00 | 0.00 | 57 | 1009.2 |
| 20260505025032 | 16 | 147 | 8.0 | 11.3 | 0.00 | 0.00 | 0.00 | 56 | 1009.1 |
| 20260505024019 | 17 | 191 | 4.8 | 6.4 | 0.00 | 0.00 | 0.00 | 50 | 1008.9 |
| 20260505023024 | 17 | 133 | 6.4 | 8.0 | 0.00 | 0.00 | 0.00 | 46 | 1008.9 |
| 20260505022029 | 17 | 142 | 8.0 | 11.3 | 0.00 | 0.00 | 0.00 | 43 | 1008.9 |
| 20260505021057 | 17 | 133 | 8.0 | 11.3 | 0.00 | 0.00 | 0.00 | 40 | 1008.7 |
| 20260505020020 | 17 | 121 | 12.9 | 14.5 | 0.00 | 0.00 | 0.00 | 40 | 1008.9 |
| 20260505015045 | 18 | 103 | 11.3 | 16.1 | 0.00 | 0.00 | 0.00 | 39 | 1008.7 |
| 20260505014030 | 18 | 128 | 9.7 | 12.9 | 0.00 | 0.00 | 0.00 | 37 | 1008.8 |
| 20260505013017 | 19 | 129 | 11.3 | 12.9 | 0.00 | 0.00 | 0.00 | 37 | 1008.9 |
| 20260505012021 | 18 | 128 | 12.9 | 14.5 | 0.00 | 0.00 | 0.00 | 38 | 1009.0 |
| 20260505011025 | 19 | 107 | 12.9 | 17.7 | 0.00 | 0.00 | 0.00 | 38 | 1009.0 |
| 20260505010030 | 20 | 114 | 12.9 | 19.3 | 0.00 | 0.00 | 0.00 | 40 | 1008.9 |
| 20260505005018 | 21 | 145 | 12.9 | 14.5 | 0.00 | 0.00 | 0.00 | 36 | 1008.7 |
| 20260505004022 | 23 | 136 | 6.4 | 8.0 | 0.00 | 0.00 | 0.00 | 27 | 1008.7 |
| 20260505003025 | 23 | 159 | 6.4 | 9.7 | 0.00 | 0.00 | 0.00 | 27 | 1008.7 |
| 20260505002030 | 22 | 135 | 6.4 | 11.3 | 0.00 | 0.00 | 0.00 | 28 | 1008.9 |
| 20260505001017 | 21 | 167 | 11.3 | 17.7 | 0.00 | 0.00 | 0.00 | 31 | 1009.0 |
| 20260505000021 | 21 | 174 | 4.8 | 8.0 | 0.00 | 0.00 | 0.00 | 29 | 1008.9 |
| 20260504235026 | 22 | 246 | 3.2 | 6.4 | 0.00 | 0.00 | 0.00 | 27 | 1008.9 |
| 20260504234051 | 22 | 285 | 3.2 | 4.8 | 0.00 | 0.00 | 0.00 | 28 | 1008.8 |
| 20260504233020 | 22 | 258 | 6.4 | 11.3 | 0.00 | 0.00 | 0.00 | 27 | 1008.7 |
| 20260504232023 | 22 | 301 | 1.6 | 4.8 | 0.00 | 0.00 | 0.00 | 27 | 1008.6 |
| 20260504231108 | 23 | 247 | 6.4 | 11.3 | 0.00 | 0.00 | 0.00 | 28 | 1008.6 |
| 20260504230054 | 23 | 64 | 11.3 | 16.1 | 0.00 | 0.00 | 0.00 | 28 | 1008.6 |
| 20260504225039 | 23 | 69 | 9.7 | 12.9 | 0.00 | 0.00 | 0.00 | 28 | 1008.6 |
| 20260504224023 | 25 | 62 | 12.9 | 20.9 | 0.00 | 0.00 | 0.00 | 25 | 1008.7 |
| 20260504223028 | 27 | 28 | 4.8 | 11.3 | 0.00 | 0.00 | 0.00 | 23 | 1008.7 |
| 20260504222033 | 27 | 243 | 6.4 | 11.3 | 0.00 | 0.00 | 0.00 | 23 | 1008.9 |
| 20260504221019 | 26 | 213 | 4.8 | 8.0 | 0.00 | 0.00 | 0.00 | 24 | 1008.7 |
| 20260504220024 | 25 | 260 | 9.7 | 12.9 | 0.00 | 0.00 | 0.00 | 25 | 1008.9 |
| 20260504215028 | 25 | 268 | 8.0 | 14.5 | 0.00 | 0.00 | 0.00 | 25 | 1009.0 |
| 20260504214015 | 24 | 267 | 14.5 | 19.3 | 0.00 | 0.00 | 0.00 | 27 | 1009.1 |
| 20260504213020 | 25 | 249 | 11.3 | 17.7 | 0.00 | 0.00 | 0.00 | 27 | 1009.1 |
| 20260504212025 | 26 | 244 | 9.7 | 14.5 | 0.00 | 0.00 | 0.00 | 30 | 1009.2 |
| 20260504211025 | 25 | 178 | 8.0 | 11.3 | 0.00 | 0.00 | 0.00 | 29 | 1009.3 |
| 20260504210018 | 24 | 144 | 8.0 | 12.9 | 0.00 | 0.00 | 0.00 | 35 | 1009.4 |
| 20260504205041 | 23 | 146 | 9.7 | 12.9 | 0.00 | 0.00 | 0.00 | 34 | 1009.4 |
| 20260504204020 | 23 | 137 | 9.7 | 12.9 | 0.00 | 0.00 | 0.00 | 32 | 1009.5 |
| 20260504203018 | 23 | 157 | 8.0 | 14.5 | 0.00 | 0.00 | 0.00 | 34 | 1009.6 |
| 20260504202017 | 24 | 134 | 11.3 | 12.9 | 0.00 | 0.00 | 0.00 | 34 | 1009.6 |
| 20260504201016 | 25 | 151 | 11.3 | 14.5 | 0.00 | 0.00 | 0.00 | 28 | 1009.6 |
| 20260504200026 | 26 | 156 | 9.7 | 14.5 | 0.00 | 0.00 | 0.00 | 26 | 1009.9 |
| 20260504195051 | 26 | 147 | 11.3 | 14.5 | 0.00 | 0.00 | 0.00 | 28 | 1010.0 |
| 20260504194018 | 26 | 141 | 11.3 | 14.5 | 0.00 | 0.00 | 0.00 | 27 | 1010.1 |
| 20260504193022 | 25 | 167 | 11.3 | 14.5 | 0.00 | 0.00 | 0.00 | 28 | 1010.2 |
| 20260504192027 | 25 | 143 | 11.3 | 16.1 | 0.00 | 0.00 | 0.00 | 28 | 1010.2 |
| 20260504191037 | 25 | 149 | 11.3 | 16.1 | 0.00 | 0.00 | 0.00 | 28 | 1010.4 |
| 20260504190018 | 25 | 146 | 9.7 | 12.9 | 0.00 | 0.00 | 0.00 | 28 | 1010.4 |
| 20260504185023 | 25 | 134 | 11.3 | 14.5 | 0.00 | 0.00 | 0.00 | 30 | 1010.8 |
| 20260504184048 | 24 | 120 | 12.9 | 16.1 | 0.00 | 0.00 | 0.00 | 29 | 1010.8 |
| 20260504183033 | 24 | 133 | 12.9 | 16.1 | 0.00 | 0.00 | 0.00 | 29 | 1010.8 |
| 20260504182019 | 23 | 113 | 12.9 | 17.7 | 0.00 | 0.00 | 0.00 | 29 | 1011.0 |
| 20260504181024 | 24 | 129 | 12.9 | 16.1 | 0.00 | 0.00 | 0.00 | 29 | 1011.1 |
| 20260504180030 | 24 | 131 | 11.3 | 14.5 | 0.00 | 0.00 | 0.00 | 28 | 1011.4 |
| 20260504175015 | 24 | 145 | 9.7 | 14.5 | 0.00 | 0.00 | 0.00 | 29 | 1011.5 |
| 20260504174020 | 23 | 113 | 12.9 | 16.1 | 0.00 | 0.00 | 0.00 | 29 | 1011.6 |
| 20260504173024 | 23 | 140 | 11.3 | 14.5 | 0.00 | 0.00 | 0.00 | 30 | 1011.7 |
| 20260504172029 | 24 | 138 | 8.0 | 11.3 | 0.00 | 0.00 | 0.00 | 32 | 1011.9 |
| 20260504171015 | 24 | 145 | 6.4 | 9.7 | 0.00 | 0.00 | 0.00 | 33 | 1011.9 |
| 20260504151018 | 20 | 118 | 6.4 | 9.7 | 0.00 | 0.00 | 0.00 | 42 | 1012.4 |